IU2GED-13 Weather Reports


time (UTC)temp
C
wind
direction
speed
KPH
gust
KPH
rain 1hr
cm
rain 24hr
cm
rain mn
cm
humidity
%
barometer
mb
20260902165233 25 213 0.0 0.0 0.00 0.00 0.00 65 1015.0
20260902164739 25 213 0.0 0.0 0.00 0.00 0.00 64 1015.0
20260902164239 25 213 0.0 0.0 0.00 0.00 0.00 64 1014.9
20260902163735 25 213 0.0 0.0 0.00 0.00 0.00 63 1014.9
20260902163223 26 195 0.0 0.0 0.00 0.00 0.00 63 1014.9
20260902162741 26 195 0.0 0.0 0.00 0.00 0.00 62 1014.9
20260902162237 26 195 0.0 0.0 0.00 0.00 0.00 62 1015.0
20260902161233 26 195 0.0 6.4 0.00 0.00 0.00 62 1014.9
20260902160731 26 195 3.2 8.0 0.00 0.00 0.00 61 1014.9
20260902160228 26 196 4.8 8.0 0.00 0.00 0.00 61 1015.0
20260902155733 26 213 4.8 6.4 0.00 0.00 0.00 61 1014.9
20260902155239 26 189 3.2 9.7 0.00 0.00 0.00 61 1014.9
20260902154724 26 195 4.8 9.7 0.00 0.00 0.00 60 1014.8
20260902154240 26 192 1.6 12.9 0.00 0.00 0.00 61 1014.9
20260902153729 26 200 6.4 19.3 0.00 0.00 0.00 60 1014.9
20260902153247 26 236 4.8 17.7 0.00 0.00 0.00 60 1014.9
20260902152227 26 194 9.7 16.1 0.00 0.00 0.00 59 1015.0
20260902151803 27 229 1.6 16.1 0.00 0.00 0.00 60 1015.0
20260902151240 27 197 4.8 17.7 0.00 0.00 0.00 58 1015.0
20260902150736 27 248 12.9 17.7 0.00 0.00 0.00 57 1015.1
20260902150242 27 197 6.4 16.1 0.00 0.00 0.00 58 1015.2
20260902145737 27 181 9.7 16.1 0.00 0.00 0.00 57 1015.1
20260902145234 27 211 6.4 11.3 0.00 0.00 0.00 57 1015.2
20260902144728 27 235 6.4 16.1 0.00 0.00 0.00 56 1015.2
20260902144227 27 180 8.0 16.1 0.00 0.00 0.00 57 1015.2
20260902143758 27 143 11.3 17.7 0.00 0.00 0.00 56 1015.2
20260902143232 27 157 11.3 17.7 0.00 0.00 0.00 55 1015.2
20260902142737 27 153 8.0 12.9 0.00 0.00 0.00 57 1015.2
20260902142241 27 162 8.0 19.3 0.00 0.00 0.00 58 1015.3
20260902141740 27 221 12.9 19.3 0.00 0.00 0.00 57 1015.4
20260902141226 27 211 9.7 17.7 0.00 0.00 0.00 57 1015.4
20260902140727 27 204 8.0 16.1 0.00 0.00 0.00 57 1015.5
20260902140302 27 178 6.4 9.7 0.00 0.00 0.00 58 1015.5
20260902135744 26 238 4.8 9.7 0.00 0.00 0.00 59 1015.5
20260902135254 26 214 6.4 11.3 0.00 0.00 0.00 57 1015.5
20260902134739 26 182 6.4 14.5 0.00 0.00 0.00 57 1015.6
20260902134230 26 167 6.4 14.5 0.00 0.00 0.00 57 1015.8
20260902133729 26 168 6.4 12.9 0.00 0.00 0.00 57 1015.6
20260902133230 26 197 8.0 12.9 0.00 0.00 0.00 57 1015.7
20260902132736 27 165 9.7 17.7 0.00 0.00 0.00 56 1015.7
20260902132240 26 183 11.3 17.7 0.00 0.00 0.00 57 1015.8
20260902131737 26 178 11.3 25.7 0.00 0.00 0.00 57 1015.9
20260902131230 26 182 12.9 25.7 0.00 0.00 0.00 56 1015.9
20260902130723 27 182 11.3 24.1 0.00 0.00 0.00 56 1016.0
20260902130241 27 156 9.7 25.7 0.00 0.00 0.00 55 1016.0
20260902125732 26 138 6.4 25.7 0.00 0.00 0.00 56 1016.0
20260902125228 26 186 16.1 27.4 0.00 0.00 0.00 56 1016.1
20260902124733 27 156 16.1 27.4 0.00 0.00 0.00 56 1016.1
20260902124223 27 168 12.9 22.5 0.00 0.00 0.00 56 1016.3
20260902123743 27 196 12.9 22.5 0.00 0.00 0.00 56 1016.3
20260902123242 27 170 14.5 19.3 0.00 0.00 0.00 55 1016.2
20260902122742 27 192 9.7 17.7 0.00 0.00 0.00 56 1016.2
20260902122206 27 203 9.7 19.3 0.00 0.00 0.00 56 1016.3
20260902121726 27 170 8.0 24.1 0.00 0.00 0.00 57 1016.5
20260902121230 27 215 11.3 24.1 0.00 0.00 0.00 57 1016.5
20260902120831 26 199 11.3 20.9 0.00 0.00 0.00 57 1016.5